Sitka, Alaska, United States (99835)
Lat: 57.05N, Lon: 135.33W
Wx Zone: AKZ023
Local Info
Past Weather Observations for Saturday, November 22, 2014

NOTE: This archive is for the closest National Weather Service station to Sitka. Information may differ from the station used for current weather conditions.

Click here for Long-term Archive

Time Weather Temperature Dewpoint Humidity Pressure Winds Precip Visibility
23:53
Overcast
Light Rain
39°F / 4°C 37°F / 3°C 93% 29.53 in
(1000 mb)
SE 8.1 mph
(SE 13 kph)
0.08 in
(2.03 mm)
7SM
22:53
Overcast
Light Rain
39°F / 4°C 37°F / 3°C 93% 29.5 in
(999 mb)
ENE 4.6 mph
(ENE 7 kph)
0.04 in
(1.02 mm)
9SM
22:21
Overcast
Light Rain
39°F / 4°C 37°F / 3°C 93% 29.5 in
(999 mb)
ENE 8.1 mph
(ENE 13 kph)
0.02 in
(0.51 mm)
8SM
22:02
Overcast
Light Rain
39°F / 4°C 39°F / 4°C 100% 29.5 in
(999 mb)
SE 5.8 mph
(SE 9 kph)
0.00 in
(0.00 mm)
10SM
21:53
Partly Cloudy
Light Rain
39°F / 4°C 37°F / 3°C 93% 29.5 in
(999 mb)
Calm 0.01 in
(0.25 mm)
10SM
20:53
Mostly Cloudy
37°F / 3°C 37°F / 3°C 100% 29.47 in
(998 mb)
E 5.8 mph
(E 9 kph)
- 10SM
20:01
Mostly Cloudy
39°F / 4°C 37°F / 3°C 93% 29.44 in
(997 mb)
E 10.4 mph
(E 17 kph)
- 10SM
19:53
Mostly Cloudy
39°F / 4°C 37°F / 3°C 93% 29.44 in
(997 mb)
ESE 12.7 mph
(ESE 20 kph)
- 10SM
19:26
Mostly Cloudy
39°F / 4°C 37°F / 3°C 93% 29.44 in
(997 mb)
ESE 11.5 mph
(ESE 19 kph)
- 10SM
18:53
Partly Cloudy
39°F / 4°C 37°F / 3°C 93% 29.44 in
(997 mb)
E 10.4 mph
(E 17 kph)
0.01 in
(0.25 mm)
10SM
17:53
Overcast
Light Rain
39°F / 4°C 37°F / 3°C 93% 29.44 in
(997 mb)
ESE 9.2 mph
(ESE 15 kph)
0.00 in
(0.00 mm)
10SM
17:03
Overcast
Light Rain
39°F / 4°C 37°F / 3°C 93% 29.42 in
(996 mb)
E 11.5 mph
(E 19 kph)
0.00 in
(0.00 mm)
10SM
16:53
Overcast
Light Rain
39°F / 4°C 37°F / 3°C 93% 29.44 in
(997 mb)
E 11.5 mph
(E 19 kph)
0.09 in
(2.29 mm)
8SM
15:53
Overcast
41°F / 5°C 37°F / 3°C 87% 29.42 in
(996 mb)
E 10.4 mph
(E 17 kph)
0.04 in
(1.02 mm)
10SM
15:40
Overcast
Fog And Mist
39°F / 4°C 37°F / 3°C 93% 29.42 in
(996 mb)
E 8.1 mph
(E 13 kph)
0.04 in
(1.02 mm)
6SM
15:06
Overcast
Light Rain
41°F / 5°C 37°F / 3°C 87% 29.42 in
(996 mb)
ENE 8.1 mph
(ENE 13 kph)
0.04 in
(1.02 mm)
3SM
14:53
Overcast
Heavy Rain
41°F / 5°C 37°F / 3°C 87% 29.42 in
(996 mb)
SE 9.2 mph
(SE 15 kph)
0.06 in
(1.52 mm)
3SM
14:51
Overcast
Rain
43°F / 6°C 37°F / 3°C 81% 29.42 in
(996 mb)
SE 9.2 mph
(SE 15 kph)
0.05 in
(1.27 mm)
2 1/2SM
13:53
Mostly Cloudy
43°F / 6°C 37°F / 3°C 81% 29.39 in
(995 mb)
E 12.7 mph
(E 20 kph)
- 10SM
12:53
Mostly Cloudy
43°F / 6°C 37°F / 3°C 81% 29.39 in
(995 mb)
ESE 11.5 mph
(ESE 19 kph)
0.02 in
(0.51 mm)
6SM
11:53
Mostly Cloudy
43°F / 6°C 37°F / 3°C 81% 29.39 in
(995 mb)
E 10.4 mph
(E 17 kph)
- 10SM
10:53
Mostly Cloudy
41°F / 5°C 37°F / 3°C 87% 29.36 in
(994 mb)
E 10.4 mph
(E 17 kph)
0.00 in
(0.00 mm)
10SM
10:32
Mostly Cloudy
39°F / 4°C 37°F / 3°C 93% 29.36 in
(994 mb)
E 9.2 mph
(E 15 kph)
0.00 in
(0.00 mm)
10SM
09:53
Overcast
Light Rain
39°F / 4°C 37°F / 3°C 93% 29.36 in
(994 mb)
E 6.9 mph
(E 11 kph)
0.12 in
(3.05 mm)
6SM
09:32
Overcast
Light Rain
39°F / 4°C 37°F / 3°C 93% 29.36 in
(994 mb)
ENE 5.8 mph
(ENE 9 kph)
0.12 in
(3.05 mm)
6SM
09:02
Overcast
Rain
39°F / 4°C 37°F / 3°C 93% 29.36 in
(994 mb)
SSE 9.2 mph
(SSE 15 kph)
0.06 in
(1.52 mm)
3SM
08:55
Overcast
Heavy Rain
39°F / 4°C 37°F / 3°C 93% 29.33 in
(993 mb)
S 6.9 mph
(S 11 kph)
0.02 in
(0.51 mm)
1 3/4SM
08:53
Overcast
Rain
39°F / 4°C 37°F / 3°C 93% 29.33 in
(993 mb)
Variable 5.8 mph
(Variable 9 kph)
0.17 in
(4.32 mm)
3SM
07:53
Overcast
Light Rain
41°F / 5°C 39°F / 4°C 93% 29.3 in
(992 mb)
E 8.1 mph
(E 13 kph)
0.11 in
(2.79 mm)
8SM
07:45
Overcast
Light Rain
39°F / 4°C 39°F / 4°C 100% 29.3 in
(992 mb)
ENE 6.9 mph
(ENE 11 kph)
0.10 in
(2.54 mm)
5SM
07:30
Overcast
Light Rain
41°F / 5°C 39°F / 4°C 93% 29.3 in
(992 mb)
E 8.1 mph
(E 13 kph)
0.08 in
(2.03 mm)
10SM
07:16
Overcast
Rain
43°F / 6°C 39°F / 4°C 87% 29.3 in
(992 mb)
S 11.5 mph
(S 19 kph)
0.07 in
(1.78 mm)
6SM
06:53
Overcast
Light Rain
43°F / 6°C 37°F / 3°C 81% 29.27 in
(991 mb)
SE 13.8 mph
(SE 22 kph)
0.00 in
(0.00 mm)
10SM
05:53
Partly Cloudy
41°F / 5°C 37°F / 3°C 87% 29.27 in
(991 mb)
ESE 10.4 mph
(ESE 17 kph)
0.00 in
(0.00 mm)
10SM
04:53
Overcast
43°F / 6°C 37°F / 3°C 81% 29.27 in
(991 mb)
E 12.7 mph
(E 20 kph)
- 10SM
03:53
Overcast
41°F / 5°C 37°F / 3°C 87% 29.27 in
(991 mb)
E 11.5 mph
(E 19 kph)
0.00 in
(0.00 mm)
10SM
02:53
Overcast
Light Rain
41°F / 5°C 37°F / 3°C 87% 29.27 in
(991 mb)
E 9.2 mph
(E 15 kph)
0.09 in
(2.29 mm)
7SM
02:35
Overcast
Rain
41°F / 5°C 39°F / 4°C 93% 29.27 in
(991 mb)
ESE 12.7 mph
(ESE 20 kph)
0.06 in
(1.52 mm)
5SM
02:26
Overcast
Light Rain
39°F / 4°C 39°F / 4°C 100% 29.27 in
(991 mb)
E 6.9 mph
(E 11 kph)
0.04 in
(1.02 mm)
8SM
01:53
Overcast
Light Rain
41°F / 5°C 37°F / 3°C 87% 29.27 in
(991 mb)
E 3.5 mph
(E 6 kph)
0.04 in
(1.02 mm)
10SM
00:53
Overcast
41°F / 5°C 37°F / 3°C 87% 29.24 in
(990 mb)
ESE 9.2 mph
(ESE 15 kph)
- 10SM
Time Weather Temperature Dewpoint Humidity Pressure Winds Precip Visibility


Weather for websites

WeatherForYou.com, LLC is not responsible for any damages or problems caused by this service. Current weather conditions are obtained from the closest station including government and personal stations which may have varying degrees of accuracy. Weather forecasts are derived from the NOAA NDFD. Like all things, this site belongs to Jesus Christ... He just trusts me to maintain it. If you have any questions or comments email webmaster@weatherforyou.com

Copyright © 2014, WeatherForYou.com LLC. All rights reserved.